Location: *
(45.8589°N, 4.7139°E)
Time: 00:07:05
(UTC+00:00)

SL-16 R/B - Pass Details

Date: 09 April 2020
Orbit: 842 x 846 km, 71.0° (Epoch: 02 June)

Event Time Altitude Azimuth Distance (km) Brightness Sun altitude
Rises 23:13:20 0° 331° (NNW) 3,414 6.2 -35.7°
Reaches altitude 10° 23:15:48 10° 329° (NNW) 2,475 5.3 -35.8°
Enters shadow 23:18:51 33° 321° (NW) 1,399 3.6 -35.8°
